QPF
0.00 0.00 0.00 0.00 0.00 0.00 0.00 0.00 0.00 0.00 0.00 0.00 0.00 0.00 0.00 0.00 0.00 0.00 0.00 0.00 0.00 0.00 0.00 0.00 0.00 0.00 0.00 0.00 0.00 0.00 0.00 0.00 0.05 0.01 0.01 0.06 0.03 0.02 0.06 0.08 0.10 0.10
0.00 0.00 0.00 0.00 0.00 0.00 0.00 0.00 0.00 0.00 0.00 0.00 0.00 0.00 0.00 0.00 0.00 0.00 0.00 0.00 0.00 0.00 0.00 0.00 0.00 0.00 0.00 0.00 0.00 0.00 0.00 0.00 0.00 0.00 0.00 0.08 0.29 0.13 0.11 0.20 0.23 0.13
0.00 0.00 0.00 0.00 0.00 0.00 0.00 0.00 0.00 0.00 0.00 0.00 0.00 0.00 0.00 0.00 0.00 0.00 0.00 0.00 0.00 0.00 0.00 0.00 0.00 0.00 0.00 0.00 0.00 0.00 0.00 0.00 0.00 0.01 0.02 0.10 0.10 0.19 0.07 0.09 0.09 0.08
0.00 0.00 0.00 0.00 0.00 0.00 0.00 0.00 0.00 0.00 0.00 0.00 0.00 0.00 0.00 0.00 0.00 0.00 0.00 0.00 0.00 0.00 0.00 0.00 0.00 0.00 0.00 0.00 0.01 0.00 0.00 0.00 0.00 0.00 0.00 0.00 0.00 0.01 0.04 0.05 0.05 0.07
0.00 0.00 0.00 0.00 0.00 0.00 0.00 0.00 0.00 0.00 0.00 0.00 0.00 0.00 0.00 0.00 0.00 0.00 0.00 0.00 0.00 0.00 0.00 0.00 0.00 0.00 0.00 0.00 0.01 0.00 0.00 0.00 0.00 0.01 0.01 0.01 0.01 0.01 0.02 0.06 0.10 0.12
0.00 0.00 0.00 0.00 0.00 0.00 0.00 0.00 0.00 0.00 0.00 0.00 0.00 0.00 0.00 0.00 0.00 0.00 0.00 0.00 0.00 0.00 0.00 0.00 0.00 0.00 0.00 0.00 0.01 0.00 0.00 0.00 0.00 0.01 0.01 0.01 0.01 0.01 0.02 0.02 0.04 0.08
0.00 0.00 0.00 0.00 0.00 0.00 0.00 0.00 0.00 0.00 0.00 0.00 0.00 0.00 0.00 0.00 0.00 0.00 0.00 0.00 0.00 0.00 0.00 0.00 0.00 0.00 0.00 0.01 0.01 0.00 0.00 0.01 0.01 0.01 0.01 0.01 0.01 0.01 0.01 0.12 0.12 0.07
0.00 0.00 0.00 0.00 0.00 0.00 0.00 0.00 0.00 0.00 0.00 0.00 0.00 0.00 0.00 0.00 0.00 0.00 0.00 0.00 0.00 0.00 0.00 0.00 0.00 0.00 0.00 0.00 0.00 0.00 0.00 0.00 0.00 0.00 0.00 0.00 0.01 0.02 0.13 0.28 0.03 0.03
0.00 0.00 0.00 0.00 0.00 0.00 0.00 0.00 0.00 0.00 0.00 0.00 0.00 0.00 0.00 0.00 0.00 0.00 0.00 0.00 0.00 0.00 0.00 0.00 0.00 0.00 0.00 0.00 0.00 0.00 0.00 0.00 0.00 0.00 0.00 0.00 0.00 0.01 0.01 0.02 0.06 0.04
0.00 0.00 0.00 0.00 0.00 0.00 0.00 0.00 0.00 0.00 0.00 0.00 0.00 0.00 0.00 0.00 0.00 0.00 0.00 0.00 0.00 0.00 0.00 0.00 0.00 0.00 0.00 0.00 0.00 0.00 0.00 0.00 0.00 0.00 0.00 0.00 0.00 0.00 0.00 0.01 0.02 0.03
0.00 0.00 0.00 0.00 0.00 0.00 0.00 0.00 0.00 0.00 0.00 0.00 0.00 0.00 0.00 0.00 0.00 0.00 0.00 0.00 0.00 0.00 0.00 0.00 0.00 0.00 0.00 0.00 0.00 0.00 0.00 0.00 0.00 0.00 0.00 0.00 0.00 0.00 0.01 0.01 0.02 0.02
0.00 0.00 0.00 0.00 0.00 0.00 0.00 0.00 0.00 0.00 0.00 0.00 0.00 0.00 0.00 0.00 0.00 0.00 0.00 0.00 0.00 0.00 0.00 0.00 0.00 0.00 0.00 0.00 0.00 0.00 0.00 0.00 0.00 0.00 0.00 0.00 0.00 0.00 0.00 0.01 0.01 0.02
0.00 0.00 0.00 0.00 0.00 0.00 0.00 0.00 0.00 0.00 0.00 0.00 0.00 0.00 0.00 0.00 0.00 0.00 0.00 0.00 0.00 0.00 0.00 0.00 0.00 0.00 0.00 0.00 0.00 0.00 0.00 0.00 0.00 0.00 0.00 0.00 0.00 0.00 0.00 0.00 0.00 0.01
0.00 0.00 0.00 0.00 0.00 0.00 0.00 0.00 0.00 0.00 0.00 0.00 0.00 0.00 0.00 0.00 0.00 0.00 0.00 0.00 0.00 0.00 0.00 0.00 0.00 0.00 0.00 0.00 0.00 0.00 0.00 0.00 0.00 0.00 0.00 0.00 0.00 0.00 0.00 0.00 0.00 0.00
0.00 0.00 0.00 0.00 0.00 0.00 0.00 0.00 0.00 0.00 0.00 0.00 0.00 0.00 0.00 0.00 0.00 0.00 0.00 0.00 0.00 0.00 0.00 0.00 0.00 0.00 0.00 0.00 0.00 0.00 0.00 0.00 0.00 0.00 0.00 0.00 0.00 0.00 0.00 0.00 0.00 0.00
0.00 0.00 0.00 0.00 0.00 0.00 0.00 0.00 0.00 0.00 0.00 0.00 0.00 0.00 0.00 0.00 0.00 0.00 0.00 0.00 0.00 0.00 0.00 0.00 0.00 0.00 0.00 0.00 0.00 0.00 0.00 0.00 0.00 0.00 0.00 0.00 0.00 0.00 0.00 0.00 0.00 0.00
0.00 0.00 0.00 0.00 0.00 0.00 0.00 0.00 0.00 0.00 0.00 0.00 0.00 0.00 0.00 0.00 0.00 0.00 0.00 0.00 0.00 0.00 0.00 0.00 0.00 0.00 0.00 0.00 0.00 0.00 0.00 0.00 0.00 0.00 0.00 0.00 0.00 0.00 0.00 0.00 0.00 0.00
0.00 0.00 0.00 0.00 0.00 0.00 0.00 0.00 0.00 0.00 0.00 0.00 0.00 0.00 0.00 0.00 0.00 0.00 0.00 0.00 0.00 0.00 0.00 0.00 0.00 0.00 0.00 0.00 0.00 0.00 0.00 0.00 0.00 0.00 0.00 0.00 0.00 0.00 0.00 0.01 0.00 0.00
0.00 0.00 0.00 0.00 0.00 0.00 0.00 0.00 0.00 0.00 0.00 0.00 0.00 0.00 0.00 0.00 0.00 0.00 0.00 0.00 0.00 0.00 0.00 0.00 0.00 0.00 0.00 0.00 0.00 0.00 0.00 0.00 0.00 0.00 0.00 0.00 0.00 0.01 0.01 0.01 0.01 0.01
0.00 0.00 0.00 0.00 0.00 0.00 0.00 0.00 0.00 0.00 0.00 0.00 0.00 0.00 0.00 0.00 0.00 0.00 0.00 0.00 0.00 0.00 0.00 0.00 0.00 0.00 0.00 0.00 0.00 0.00 0.00 0.00 0.00 0.00 0.00 0.00 0.00 0.01 0.01 0.01 0.01 0.02
0.00 0.00 0.00 0.00 0.00 0.00 0.00 0.00 0.00 0.00 0.00 0.00 0.00 0.00 0.00 0.00 0.00 0.00 0.00 0.00 0.00 0.00 0.00 0.00 0.00 0.00 0.00 0.00 0.00 0.00 0.00 0.00 0.00 0.00 0.00 0.00 0.00 0.00 0.00 0.01 0.01 0.01
0.00 0.00 0.00 0.00 0.00 0.00 0.00 0.00 0.00 0.00 0.00 0.00 0.00 0.00 0.00 0.00 0.00 0.00 0.00 0.00 0.00 0.00 0.00 0.00 0.00 0.00 0.00 0.00 0.00 0.00 0.00 0.00 0.00 0.00 0.00 0.00 0.00 0.00 0.00 0.00 0.01 0.01
0.00 0.00 0.00 0.00 0.00 0.00 0.00 0.00 0.00 0.00 0.00 0.00 0.00 0.00 0.00 0.00 0.00 0.00 0.00 0.00 0.00 0.00 0.00 0.00 0.00 0.00 0.00 0.00 0.00 0.00 0.00 0.00 0.00 0.00 0.00 0.00 0.00 0.00 0.00 0.00 0.00 0.01
0.00 0.00 0.00 0.00 0.00 0.00 0.00 0.00 0.00 0.00 0.00 0.00 0.00 0.00 0.00 0.00 0.00 0.00 0.00 0.00 0.00 0.00 0.00 0.00 0.00 0.00 0.00 0.00 0.00 0.00 0.00 0.00 0.00 0.00 0.00 0.00 0.00 0.00 0.00 0.00 0.00 0.01
0.00 0.00 0.00 0.00 0.00 0.00 0.00 0.00 0.00 0.00 0.00 0.00 0.00 0.00 0.00 0.00 0.00 0.00 0.00 0.00 0.00 0.00 0.00 0.00 0.00 0.00 0.00 0.00 0.00 0.00 0.00 0.00 0.00 0.00 0.00 0.00 0.00 0.00 0.00 0.00 0.00 0.00
0.00 0.00 0.00 0.00 0.00 0.00 0.00 0.00 0.00 0.00 0.00 0.00 0.00 0.00 0.00 0.00 0.00 0.00 0.00 0.00 0.00 0.00 0.00 0.00 0.00 0.00 0.00 0.00 0.00 0.00 0.00 0.00 0.00 0.00 0.00 0.00 0.00 0.00 0.00 0.00 0.00 0.00
MSLP
1020.98 1020.94 1020.90 1020.82 1020.78 1020.66 1020.54 1020.42 1020.26 1020.18 1020.06 1019.86 1019.74 1019.54 1019.34 1019.14 1018.82 1018.58 1018.34 1018.10 1017.86 1017.66 1017.54 1017.34 1017.10 1016.86 1016.58 1016.30 1016.10 1015.94 1015.82 1015.70 1015.50 1015.30 1015.14 1014.90 1014.70 1014.50 1014.42 1014.34 1014.42 1014.34
1021.26 1021.22 1021.18 1021.18 1021.10 1020.98 1020.82 1020.70 1020.54 1020.50 1020.42 1020.26 1020.10 1019.86 1019.58 1019.30 1019.10 1018.86 1018.66 1018.42 1018.14 1017.94 1017.74 1017.54 1017.30 1016.98 1016.66 1016.34 1016.06 1015.86 1015.70 1015.54 1015.42 1015.10 1014.94 1014.66 1014.38 1014.18 1014.10 1014.06 1014.22 1014.06
1021.58 1021.50 1021.54 1021.58 1021.58 1021.42 1021.22 1021.02 1020.90 1020.82 1020.78 1020.66 1020.42 1020.18 1019.94 1019.62 1019.38 1019.18 1019.02 1018.86 1018.66 1018.38 1018.06 1017.82 1017.54 1017.34 1017.34 1017.10 1016.62 1016.06 1015.74 1015.50 1015.30 1014.98 1014.78 1014.58 1014.34 1014.14 1013.86 1013.82 1013.98 1013.94
1021.82 1021.82 1021.86 1021.86 1021.82 1021.78 1021.58 1021.42 1021.34 1021.22 1021.14 1021.02 1020.86 1020.62 1020.38 1020.10 1019.78 1019.54 1019.38 1019.26 1019.18 1018.94 1018.58 1018.18 1017.90 1018.18 1018.14 1017.98 1017.58 1017.14 1016.78 1016.22 1015.70 1015.14 1014.74 1014.42 1014.22 1014.02 1013.78 1013.62 1013.54 1013.54
1022.18 1022.14 1022.14 1022.14 1022.10 1022.02 1021.90 1021.82 1021.74 1021.66 1021.54 1021.42 1021.22 1020.98 1020.78 1020.58 1020.30 1020.06 1019.94 1019.74 1019.62 1019.46 1019.10 1018.66 1018.50 1018.70 1018.58 1018.38 1018.02 1017.66 1017.22 1016.90 1016.42 1015.90 1015.14 1014.46 1014.06 1013.86 1013.62 1013.50 1013.38 1013.34
1022.50 1022.46 1022.46 1022.46 1022.42 1022.30 1022.26 1022.14 1022.06 1021.98 1021.86 1021.66 1021.50 1021.26 1021.10 1020.94 1020.74 1020.54 1020.42 1020.18 1019.98 1019.82 1019.50 1019.06 1019.06 1019.02 1018.82 1018.58 1018.30 1018.10 1017.82 1017.38 1016.82 1016.38 1015.94 1015.22 1014.34 1013.82 1013.54 1013.38 1013.22 1013.06
1022.90 1022.86 1022.86 1022.78 1022.66 1022.54 1022.46 1022.38 1022.26 1022.14 1022.02 1021.94 1021.74 1021.54 1021.42 1021.22 1021.02 1020.90 1020.70 1020.50 1020.30 1020.10 1019.86 1019.54 1019.70 1019.42 1019.22 1019.06 1018.78 1018.50 1018.14 1017.74 1017.18 1016.82 1016.38 1015.78 1015.10 1014.10 1013.46 1013.18 1012.98 1012.78
1023.18 1023.18 1023.14 1023.06 1022.94 1022.86 1022.70 1022.58 1022.46 1022.34 1022.26 1022.14 1022.02 1021.90 1021.70 1021.58 1021.34 1021.18 1020.98 1020.82 1020.62 1020.42 1020.18 1019.98 1020.14 1019.98 1019.74 1019.46 1019.22 1018.90 1018.50 1018.10 1017.70 1017.22 1016.78 1016.14 1015.46 1014.78 1013.94 1013.10 1012.70 1012.54
1023.46 1023.46 1023.38 1023.26 1023.18 1023.06 1022.94 1022.78 1022.66 1022.54 1022.46 1022.38 1022.30 1022.14 1021.94 1021.78 1021.66 1021.46 1021.30 1021.10 1020.98 1020.82 1020.58 1020.38 1020.50 1020.38 1020.14 1019.90 1019.58 1019.22 1018.86 1018.42 1018.02 1017.62 1017.10 1016.54 1015.90 1015.14 1014.46 1013.66 1012.82 1012.38
1023.74 1023.70 1023.58 1023.50 1023.38 1023.30 1023.18 1023.02 1022.86 1022.66 1022.54 1022.50 1022.42 1022.26 1022.06 1021.94 1021.82 1021.70 1021.54 1021.42 1021.34 1021.22 1020.98 1020.74 1020.66 1020.38 1020.06 1019.82 1019.66 1019.34 1019.02 1018.62 1018.14 1017.70 1017.22 1016.66 1016.18 1015.50 1014.70 1014.02 1013.14 1012.30
1023.90 1023.78 1023.70 1023.62 1023.58 1023.50 1023.38 1023.22 1023.02 1022.86 1022.66 1022.62 1022.50 1022.34 1022.18 1022.10 1021.98 1021.90 1021.82 1021.70 1021.62 1021.50 1021.30 1021.02 1020.70 1020.50 1020.30 1019.98 1019.66 1019.42 1019.10 1018.66 1018.18 1017.74 1017.26 1016.74 1016.14 1015.58 1014.86 1014.14 1013.42 1012.50
1023.94 1023.86 1023.78 1023.70 1023.70 1023.66 1023.58 1023.46 1023.30 1023.10 1022.94 1022.78 1022.66 1022.50 1022.34 1022.30 1022.30 1022.14 1022.06 1021.98 1021.82 1021.62 1021.34 1021.10 1020.98 1020.78 1020.62 1020.26 1019.74 1019.22 1018.78 1018.42 1018.02 1017.62 1017.22 1016.78 1016.18 1015.50 1014.94 1014.34 1013.66 1012.78
1023.98 1023.90 1023.86 1023.82 1023.78 1023.78 1023.74 1023.62 1023.50 1023.38 1023.18 1023.06 1022.90 1022.78 1022.58 1022.54 1022.54 1022.38 1022.14 1021.94 1021.78 1021.58 1021.46 1021.34 1021.18 1020.98 1020.74 1020.38 1019.90 1019.38 1018.90 1018.42 1017.86 1017.46 1017.06 1016.62 1016.18 1015.66 1015.06 1014.42 1013.70 1012.90
1024.10 1023.98 1023.90 1023.86 1023.86 1023.90 1023.86 1023.82 1023.70 1023.58 1023.46 1023.34 1023.18 1022.98 1022.86 1022.74 1022.66 1022.54 1022.34 1022.14 1021.98 1021.82 1021.66 1021.46 1021.34 1021.14 1020.86 1020.54 1020.10 1019.58 1019.02 1018.46 1017.94 1017.38 1016.94 1016.42 1015.90 1015.38 1014.90 1014.34 1013.66 1012.90
1024.22 1024.10 1024.02 1023.98 1024.02 1024.02 1024.02 1023.98 1023.90 1023.82 1023.66 1023.54 1023.38 1023.26 1023.10 1022.98 1022.90 1022.78 1022.62 1022.42 1022.22 1022.02 1021.78 1021.62 1021.46 1021.30 1021.10 1020.86 1020.46 1019.74 1019.10 1018.54 1017.90 1017.34 1016.82 1016.30 1015.70 1015.06 1014.46 1013.94 1013.34 1012.74
1024.38 1024.30 1024.26 1024.26 1024.22 1024.18 1024.18 1024.18 1024.10 1024.02 1023.86 1023.74 1023.62 1023.54 1023.42 1023.30 1023.18 1023.02 1022.86 1022.70 1022.54 1022.26 1021.98 1021.74 1021.58 1021.42 1021.30 1021.02 1020.66 1020.14 1019.38 1018.62 1017.94 1017.34 1016.78 1016.22 1015.62 1014.94 1014.22 1013.54 1013.02 1012.42
1024.54 1024.54 1024.54 1024.46 1024.46 1024.46 1024.42 1024.38 1024.30 1024.22 1024.10 1023.98 1023.90 1023.78 1023.70 1023.54 1023.46 1023.30 1023.10 1022.94 1022.78 1022.54 1022.26 1021.98 1021.78 1021.54 1021.42 1021.02 1020.54 1020.06 1019.42 1018.74 1018.10 1017.50 1016.86 1016.22 1015.62 1015.02 1014.42 1013.70 1013.02 1012.46
1024.74 1024.74 1024.74 1024.78 1024.74 1024.70 1024.66 1024.58 1024.50 1024.42 1024.30 1024.22 1024.14 1024.02 1023.90 1023.78 1023.62 1023.50 1023.34 1023.10 1022.90 1022.70 1022.46 1022.18 1021.90 1021.62 1021.42 1020.98 1020.58 1020.06 1019.54 1018.94 1018.30 1017.70 1016.98 1016.34 1015.90 1015.42 1014.90 1014.30 1013.66 1012.94
1024.86 1024.86 1024.94 1024.98 1024.98 1024.98 1024.86 1024.74 1024.62 1024.54 1024.46 1024.38 1024.30 1024.22 1024.10 1023.90 1023.82 1023.62 1023.42 1023.22 1022.98 1022.78 1022.54 1022.26 1021.98 1021.66 1021.42 1021.02 1020.62 1020.14 1019.58 1018.98 1018.38 1017.90 1017.30 1016.66 1016.18 1015.74 1015.22 1014.70 1014.14 1013.46
1024.98 1025.06 1025.10 1025.14 1025.14 1025.10 1025.02 1024.90 1024.74 1024.62 1024.58 1024.54 1024.46 1024.34 1024.22 1024.10 1023.90 1023.74 1023.54 1023.34 1023.10 1022.90 1022.70 1022.38 1022.06 1021.74 1021.50 1021.14 1020.70 1020.22 1019.66 1019.06 1018.54 1018.02 1017.50 1016.94 1016.38 1015.90 1015.42 1014.94 1014.46 1013.94
1025.18 1025.22 1025.22 1025.22 1025.22 1025.18 1025.14 1025.06 1024.94 1024.82 1024.66 1024.62 1024.58 1024.50 1024.38 1024.26 1024.10 1023.90 1023.66 1023.46 1023.26 1023.02 1022.78 1022.50 1022.22 1021.86 1021.58 1021.22 1020.74 1020.26 1019.66 1019.10 1018.70 1018.18 1017.66 1017.06 1016.46 1016.06 1015.62 1015.14 1014.70 1014.14
1025.22 1025.30 1025.34 1025.34 1025.34 1025.30 1025.22 1025.10 1025.02 1024.94 1024.82 1024.74 1024.66 1024.62 1024.54 1024.42 1024.22 1024.02 1023.82 1023.62 1023.38 1023.14 1022.90 1022.62 1022.30 1021.90 1021.62 1021.26 1020.82 1020.30 1019.70 1019.14 1018.74 1018.34 1017.90 1017.34 1016.66 1016.10 1015.66 1015.22 1014.78 1014.22
1025.30 1025.34 1025.42 1025.46 1025.46 1025.38 1025.30 1025.26 1025.14 1025.02 1024.94 1024.90 1024.74 1024.74 1024.62 1024.50 1024.38 1024.22 1024.02 1023.82 1023.54 1023.26 1023.02 1022.78 1022.42 1021.94 1021.70 1021.38 1020.98 1020.50 1019.74 1019.22 1018.78 1018.42 1018.06 1017.62 1017.06 1016.26 1015.74 1015.34 1014.94 1014.42
1025.38 1025.42 1025.46 1025.54 1025.50 1025.46 1025.38 1025.34 1025.30 1025.22 1025.10 1025.10 1024.94 1024.82 1024.66 1024.62 1024.50 1024.30 1024.06 1023.90 1023.70 1023.46 1023.10 1022.98 1022.58 1022.06 1021.74 1021.42 1021.02 1020.66 1020.18 1019.66 1019.14 1018.70 1018.30 1017.86 1017.22 1016.46 1015.86 1015.42 1015.10 1014.54
1025.38 1025.50 1025.54 1025.58 1025.54 1025.54 1025.50 1025.42 1025.38 1025.38 1025.38 1025.22 1025.10 1024.98 1024.82 1024.82 1024.62 1024.50 1024.30 1024.02 1023.86 1023.66 1023.26 1023.06 1022.74 1022.22 1021.82 1021.54 1021.14 1020.78 1020.30 1019.86 1019.42 1019.02 1018.58 1018.10 1017.46 1016.58 1015.98 1015.62 1015.02 1014.58
1025.34 1025.50 1025.62 1025.62 1025.58 1025.54 1025.50 1025.50 1025.50 1025.46 1025.46 1025.38 1025.30 1025.22 1025.10 1025.02 1024.90 1024.70 1024.54 1024.26 1024.02 1023.78 1023.46 1023.18 1022.78 1022.34 1021.94 1021.66 1021.34 1020.90 1020.54 1020.18 1019.70 1019.26 1018.86 1018.26 1017.70 1017.06 1016.26 1015.66 1015.26 1014.66
Thickness
5623 5622 5621 5621 5621 5621 5622 5622 5622 5622 5622 5623 5624 5624 5625 5626 5627 5629 5629 5629 5630 5631 5631 5631 5632 5633 5634 5635 5635 5635 5634 5633 5632 5631 5632 5632 5632 5632 5633 5633 5632 5631
5618 5617 5616 5615 5615 5615 5616 5617 5616 5616 5616 5617 5618 5619 5620 5621 5622 5623 5623 5624 5625 5626 5627 5627 5628 5629 5631 5632 5633 5632 5632 5631 5631 5630 5629 5630 5632 5631 5632 5632 5630 5629
5612 5611 5610 5609 5609 5609 5609 5611 5611 5611 5610 5611 5612 5614 5615 5616 5616 5617 5618 5618 5618 5619 5620 5622 5623 5624 5623 5624 5625 5627 5627 5627 5628 5628 5627 5627 5628 5629 5630 5630 5629 5628
5607 5606 5605 5604 5603 5603 5603 5604 5604 5604 5605 5605 5605 5607 5608 5609 5610 5611 5612 5611 5612 5612 5613 5615 5616 5615 5614 5615 5616 5617 5618 5619 5621 5623 5624 5625 5625 5626 5627 5628 5628 5628
5601 5600 5600 5599 5597 5597 5598 5598 5598 5598 5598 5599 5599 5600 5601 5602 5603 5604 5604 5604 5605 5605 5607 5609 5609 5607 5607 5608 5609 5610 5611 5612 5613 5616 5618 5621 5623 5623 5624 5625 5626 5626
5595 5594 5594 5593 5592 5592 5592 5592 5592 5592 5592 5592 5593 5594 5594 5595 5596 5596 5597 5597 5598 5599 5600 5602 5601 5601 5602 5601 5602 5603 5603 5605 5607 5609 5611 5614 5617 5620 5622 5622 5623 5624
5588 5588 5588 5587 5587 5586 5586 5586 5586 5586 5587 5587 5587 5588 5588 5589 5589 5590 5590 5591 5592 5592 5594 5595 5593 5594 5595 5595 5596 5596 5597 5599 5601 5603 5605 5607 5610 5614 5618 5620 5621 5622
5582 5582 5581 5581 5581 5581 5581 5581 5581 5581 5581 5581 5581 5581 5582 5583 5582 5583 5583 5584 5585 5585 5587 5588 5586 5586 5587 5588 5589 5590 5591 5592 5594 5596 5598 5601 5604 5608 5612 5616 5619 5621
5576 5576 5575 5576 5576 5576 5575 5575 5576 5575 5575 5575 5575 5576 5576 5577 5576 5577 5577 5577 5578 5578 5579 5580 5579 5579 5581 5581 5583 5584 5585 5586 5588 5590 5592 5595 5599 5602 5606 5609 5614 5618
5571 5570 5571 5570 5570 5570 5570 5570 5570 5570 5570 5570 5570 5570 5571 5571 5570 5571 5571 5571 5570 5570 5571 5572 5572 5574 5575 5576 5578 5578 5580 5582 5583 5585 5587 5590 5593 5597 5600 5604 5609 5614
5566 5566 5566 5565 5565 5565 5564 5564 5564 5565 5565 5564 5564 5565 5565 5565 5565 5565 5564 5564 5563 5563 5563 5564 5566 5567 5569 5570 5572 5573 5575 5578 5579 5581 5583 5585 5589 5592 5596 5599 5604 5610
5562 5561 5561 5561 5559 5559 5558 5558 5558 5558 5559 5559 5559 5559 5559 5558 5558 5558 5558 5557 5557 5558 5558 5558 5560 5560 5561 5564 5567 5569 5572 5574 5576 5578 5579 5582 5585 5588 5591 5594 5599 5604
5558 5557 5557 5555 5555 5553 5552 5552 5552 5552 5553 5552 5552 5552 5552 5551 5551 5551 5551 5551 5552 5552 5552 5552 5552 5553 5555 5557 5560 5564 5566 5569 5572 5574 5577 5579 5581 5584 5586 5589 5594 5599
5553 5552 5552 5551 5549 5548 5547 5546 5545 5545 5546 5545 5545 5545 5545 5545 5544 5544 5545 5545 5545 5545 5545 5545 5546 5547 5548 5550 5554 5557 5560 5564 5567 5570 5573 5576 5578 5581 5583 5587 5590 5595
5547 5547 5547 5546 5544 5543 5541 5540 5539 5539 5539 5539 5539 5538 5538 5538 5537 5537 5537 5537 5538 5538 5538 5539 5539 5540 5541 5542 5545 5550 5554 5557 5561 5565 5568 5571 5575 5578 5582 5585 5588 5592
5542 5541 5541 5540 5538 5537 5535 5534 5533 5532 5532 5532 5532 5531 5530 5530 5530 5529 5530 5530 5530 5530 5531 5532 5532 5532 5532 5534 5537 5541 5546 5551 5554 5558 5562 5566 5570 5574 5578 5582 5585 5589
5537 5535 5534 5533 5532 5530 5529 5528 5527 5526 5526 5525 5524 5524 5523 5523 5522 5522 5522 5522 5522 5522 5523 5524 5524 5524 5525 5528 5531 5534 5538 5543 5546 5550 5555 5560 5564 5567 5571 5575 5579 5583
5531 5530 5528 5526 5525 5523 5523 5522 5521 5520 5519 5518 5518 5517 5516 5516 5515 5515 5515 5515 5515 5515 5515 5516 5516 5517 5518 5521 5524 5527 5530 5534 5538 5542 5547 5552 5555 5559 5562 5566 5570 5574
5526 5524 5522 5520 5518 5517 5516 5515 5515 5515 5513 5513 5511 5510 5510 5509 5508 5508 5508 5508 5508 5508 5508 5509 5509 5510 5511 5513 5516 5519 5522 5526 5529 5533 5537 5541 5545 5550 5554 5557 5560 5565
5520 5518 5516 5515 5513 5511 5510 5509 5509 5509 5507 5506 5505 5504 5503 5502 5502 5502 5501 5500 5501 5500 5500 5501 5501 5502 5504 5505 5508 5511 5514 5517 5521 5524 5528 5531 5535 5540 5544 5548 5551 5555
5515 5513 5511 5509 5507 5505 5505 5504 5503 5503 5501 5500 5499 5498 5497 5495 5495 5494 5494 5493 5493 5492 5492 5493 5493 5494 5495 5497 5500 5502 5506 5509 5512 5515 5518 5522 5526 5530 5534 5539 5543 5547
5509 5508 5506 5504 5502 5500 5499 5498 5497 5496 5495 5494 5493 5491 5490 5488 5487 5487 5486 5485 5485 5484 5484 5484 5485 5486 5486 5488 5490 5493 5497 5500 5502 5505 5508 5512 5516 5521 5524 5529 5534 5538
5504 5503 5501 5498 5497 5495 5494 5493 5492 5490 5489 5488 5486 5485 5483 5481 5480 5479 5478 5478 5477 5476 5476 5475 5476 5477 5477 5478 5480 5482 5486 5489 5492 5494 5497 5500 5505 5511 5515 5519 5523 5528
5500 5498 5496 5493 5492 5491 5489 5487 5486 5484 5483 5481 5479 5478 5476 5474 5472 5471 5470 5469 5468 5467 5467 5466 5466 5467 5467 5467 5469 5471 5473 5476 5478 5481 5484 5488 5493 5499 5505 5509 5512 5518
5496 5493 5491 5489 5487 5486 5484 5482 5480 5478 5477 5475 5473 5471 5469 5467 5465 5463 5462 5461 5460 5459 5458 5457 5457 5457 5458 5457 5457 5459 5460 5462 5464 5467 5470 5474 5479 5486 5493 5498 5502 5508
5492 5489 5487 5484 5482 5481 5479 5477 5475 5473 5471 5468 5467 5465 5463 5460 5458 5456 5455 5454 5452 5451 5450 5449 5449 5448 5447 5446 5445 5446 5447 5449 5451 5453 5455 5458 5464 5471 5478 5485 5491 5498